sat.trackr.live / text

‹ back to catalog

STARLINK-3705

NORAD 52103 · 2022-029R

PAYLOAD ACTIVE UNKNOWN

§ Identity

Operator
Country
US
Launch date
2022-03-19
Launch site
AFETR
Launch vehicle
Mass (kg)
RCS (m²)

Purposes: comms

External: N2YO · Heavens-Above · Gunter

§ Orbital elements

Epoch: 2026-09-19T18:00:08.007552Z

Period
93.85 min
Inclination
53.1588°
Eccentricity
0.0001288
Mean motion
15.34383819 rev/d
Perigee alt
461.9 km
Apogee alt
463.6 km
Semi-major
6,840.9 km
B*
6.6694e-6
RAAN
272.8732°
Arg perigee
89.6544°
Mean anomaly
270.4606°
Rev number
25,028

§ Raw data

STARLINK-37051 52103U 22029R   26262.75009268 -.00000151  00000+0  66694-5 0  99942 52103  53.1588 272.8732 0001288  89.6544 270.4606 15.34383819250286

JSON: /api/v1/satellites/52103 · /tle

For live sub-satellite position, see the globe view (requires WebGL).

§ Visibility from observer

Set your observer location to see the next 7 days of passes ≥ 10°. The values pass through the URL so the page stays shareable.

No JS? Fill the form by hand. The geolocation button needs JavaScript.